EWG4VA LIRQ-EDDF

Flight info

Callsign EWG4VA
Flight time 1h 28m
Altitude 18000
Route OKMAP Q125 OMAKU/N0466F320 DCT BOA DCT SUMIR DCT UNIMI L12 MOGTI Q163 HAFUN/N0429F240 Q163 ETASA T163 SPESA SPESA5C
Aircraft A319/M-SDE3FGHIRWY/LB1

Departure

Time 2026-05-08 18:18
Airport Florence Airport, Peretola (LIRQ)

Arrival

Time 2026-05-08 19:46
Airport Frankfurt Main Airport (EDDF)
Time Latitude Longitude Altitude Speed Heading
2026-05-08 17:45 43.80420 11.20049 133 ft 0 kts 86°
2026-05-08 18:13 43.80420 11.20062 133 ft 4 kts 87°
2026-05-08 18:13 43.80442 11.20103 133 ft 7 kts 358°
2026-05-08 18:14 43.80474 11.20048 133 ft 6 kts 262°
2026-05-08 18:14 43.80439 11.19986 132 ft 10 kts 228°
2026-05-08 18:14 43.80412 11.19897 129 ft 12 kts 296°
2026-05-08 18:14 43.80428 11.19875 126 ft 0 kts 319°
2026-05-08 18:15 43.80432 11.19870 125 ft 3 kts 319°
2026-05-08 18:15 43.80469 11.19823 124 ft 10 kts 311°
2026-05-08 18:15 43.80496 11.19721 123 ft 3 kts 324°
2026-05-08 18:15 43.80498 11.19722 123 ft 0 kts 344°
2026-05-08 18:16 43.80501 11.19728 121 ft 1 kts 39°
2026-05-08 18:16 43.80514 11.19755 124 ft 5 kts 53°
2026-05-08 18:16 43.80526 11.19774 123 ft 0 kts 48°
2026-05-08 18:17 43.80538 11.19793 123 ft 21 kts 48°
2026-05-08 18:17 43.80830 11.20241 134 ft 103 kts 48°
2026-05-08 18:17 43.81456 11.21208 267 ft 150 kts 48°
2026-05-08 18:18 43.82194 11.22177 977 ft 150 kts 28°
2026-05-08 18:18 43.83222 11.22450 1650 ft 153 kts 352°
2026-05-08 18:18 43.84160 11.21862 2183 ft 152 kts 317°
2026-05-08 18:18 43.84691 11.20590 2569 ft 157 kts 277°
2026-05-08 18:19 43.84491 11.19124 3053 ft 157 kts 244°
2026-05-08 18:19 43.83997 11.17798 3613 ft 153 kts 241°
2026-05-08 18:19 43.83490 11.16507 4121 ft 152 kts 241°
2026-05-08 18:19 43.82978 11.15216 4597 ft 153 kts 241°
2026-05-08 18:20 43.82461 11.13916 5061 ft 155 kts 242°
2026-05-08 18:20 43.81937 11.12598 5519 ft 157 kts 242°
2026-05-08 18:20 43.81411 11.11274 5988 ft 157 kts 242°
2026-05-08 18:20 43.81082 11.09842 6424 ft 158 kts 270°
2026-05-08 18:21 43.81110 11.08287 6756 ft 169 kts 272°
2026-05-08 18:21 43.81141 11.06553 6960 ft 191 kts 272°
2026-05-08 18:21 43.81171 11.04614 7165 ft 213 kts 271°
2026-05-08 18:21 43.81312 11.02504 7487 ft 228 kts 284°
2026-05-08 18:22 43.81985 11.00439 7966 ft 239 kts 307°
2026-05-08 18:22 43.83146 10.98815 8794 ft 239 kts 326°
2026-05-08 18:22 43.84650 10.97821 9593 ft 242 kts 346°
2026-05-08 18:22 43.86327 10.97626 10334 ft 245 kts
2026-05-08 18:23 43.87969 10.98279 11029 ft 249 kts 27°
2026-05-08 18:23 43.89370 10.99762 11534 ft 264 kts 51°
2026-05-08 18:23 43.90329 11.02057 11809 ft 287 kts 64°
2026-05-08 18:23 43.91212 11.04625 12036 ft 310 kts 65°
2026-05-08 18:24 43.92178 11.07470 12228 ft 334 kts 65°
2026-05-08 18:24 43.93190 11.10449 12365 ft 356 kts 64°
2026-05-08 18:24 43.94278 11.13642 12546 ft 375 kts 64°
2026-05-08 18:24 43.95408 11.16947 13040 ft 383 kts 64°
2026-05-08 18:25 43.96562 11.20308 13643 ft 387 kts 64°
2026-05-08 18:25 43.97823 11.23633 14195 ft 391 kts 57°
2026-05-08 18:25 43.99500 11.26619 14737 ft 395 kts 45°
2026-05-08 18:25 44.01570 11.29140 15285 ft 397 kts 34°
2026-05-08 18:26 44.03949 11.31084 15850 ft 399 kts 23°
2026-05-08 18:26 44.06514 11.32648 16431 ft 403 kts 23°
2026-05-08 18:26 44.09043 11.34347 17022 ft 406 kts 25°
2026-05-08 18:26 44.11599 11.36054 17570 ft 409 kts 20°
2026-05-08 18:27 44.14314 11.37258 18121 ft 411 kts 10°
2026-05-08 18:27 44.16187 11.37658 18462 ft 411 kts
2026-05-08 18:27 44.19996 11.37402 19060 ft 411 kts 347°
2026-05-08 18:27 44.22824 11.36660 19530 ft 414 kts 347°
2026-05-08 18:28 44.25674 11.35932 19989 ft 418 kts 347°
2026-05-08 18:28 44.27572 11.35460 20288 ft 420 kts 347°
2026-05-08 18:28 44.31300 11.34552 20847 ft 424 kts 348°
2026-05-08 18:28 44.34221 11.33845 21267 ft 427 kts 348°
2026-05-08 18:29 44.37161 11.33133 21682 ft 430 kts 348°
2026-05-08 18:29 44.40080 11.32422 22064 ft 433 kts 348°
2026-05-08 18:29 44.43060 11.31695 22471 ft 436 kts 348°
2026-05-08 18:29 44.46056 11.30964 22882 ft 438 kts 347°
2026-05-08 18:30 44.49062 11.30227 23308 ft 439 kts 347°
2026-05-08 18:30 44.52079 11.29486 23687 ft 442 kts 348°
2026-05-08 18:30 44.55153 11.29134 24017 ft 447 kts 357°
2026-05-08 18:30 44.58279 11.29234 24363 ft 449 kts 358°
2026-05-08 18:31 44.61406 11.29358 24739 ft 451 kts 358°
2026-05-08 18:31 44.64543 11.29485 25091 ft 452 kts 358°
2026-05-08 18:31 44.67689 11.29611 25436 ft 453 kts 358°
2026-05-08 18:31 44.70841 11.29734 25759 ft 454 kts 358°
2026-05-08 18:32 44.74014 11.29859 26079 ft 455 kts 358°
2026-05-08 18:32 44.77183 11.29984 26394 ft 457 kts 358°
2026-05-08 18:32 44.80365 11.30111 26693 ft 458 kts 357°
2026-05-08 18:32 44.83561 11.30237 27000 ft 460 kts 358°
2026-05-08 18:33 44.86765 11.30357 27274 ft 462 kts 358°
2026-05-08 18:33 44.89983 11.30478 27552 ft 463 kts 358°
2026-05-08 18:33 44.93217 11.30604 27830 ft 465 kts 358°
2026-05-08 18:33 44.96413 11.30735 28185 ft 464 kts 357°
2026-05-08 18:34 44.99640 11.30870 28610 ft 463 kts 357°
2026-05-08 18:34 45.02852 11.31002 29049 ft 462 kts 358°
2026-05-08 18:34 45.06061 11.31129 29370 ft 463 kts 358°
2026-05-08 18:34 45.09289 11.31254 29738 ft 463 kts 358°
2026-05-08 18:35 45.12506 11.31381 30140 ft 462 kts 357°
2026-05-08 18:35 45.15715 11.31507 30500 ft 461 kts 357°
2026-05-08 18:35 45.18915 11.31632 30877 ft 459 kts 357°
2026-05-08 18:35 45.22109 11.31758 31277 ft 458 kts 357°
2026-05-08 18:36 45.24210 11.31842 31499 ft 457 kts 357°
2026-05-08 18:36 45.27390 11.31969 31850 ft 457 kts 356°
2026-05-08 18:36 45.30567 11.32097 32237 ft 455 kts 356°
2026-05-08 18:36 45.33722 11.32226 32642 ft 453 kts 356°
2026-05-08 18:37 45.36876 11.32354 33054 ft 451 kts 356°
2026-05-08 18:37 45.40016 11.32478 33473 ft 449 kts 355°
2026-05-08 18:37 45.43131 11.32601 33871 ft 448 kts 356°
2026-05-08 18:37 45.46250 11.32724 34200 ft 448 kts 356°
2026-05-08 18:38 45.49357 11.32846 34500 ft 448 kts 356°
2026-05-08 18:38 45.52447 11.32969 34770 ft 448 kts 356°
2026-05-08 18:38 45.55594 11.33097 35031 ft 449 kts 356°
2026-05-08 18:38 45.58710 11.33227 35275 ft 449 kts 356°
2026-05-08 18:39 45.61846 11.33356 35552 ft 450 kts 356°
2026-05-08 18:39 45.64969 11.33482 35771 ft 451 kts 356°
2026-05-08 18:39 45.68107 11.33611 35982 ft 452 kts 356°
2026-05-08 18:39 45.71265 11.33743 36055 ft 452 kts 357°
2026-05-08 18:40 45.77567 11.33999 36056 ft 452 kts 356°
2026-05-08 18:40 45.83841 11.34243 36055 ft 453 kts 357°
2026-05-08 18:41 45.90168 11.34501 36057 ft 454 kts 357°
2026-05-08 18:41 45.96441 11.34765 36057 ft 454 kts 357°
2026-05-08 18:42 46.02756 11.35020 36064 ft 454 kts 357°
2026-05-08 18:42 46.09074 11.35282 36052 ft 455 kts 357°
2026-05-08 18:43 46.15420 11.35542 36046 ft 455 kts 357°
2026-05-08 18:43 46.21744 11.35807 36041 ft 455 kts 357°
2026-05-08 18:44 46.27956 11.34910 36036 ft 445 kts 341°
2026-05-08 18:44 46.33822 11.32146 36035 ft 443 kts 337°
2026-05-08 18:45 46.39663 11.29305 36040 ft 443 kts 337°
2026-05-08 18:45 46.45510 11.26447 36017 ft 443 kts 337°
2026-05-08 18:46 46.51347 11.23595 36048 ft 442 kts 337°
2026-05-08 18:46 46.57187 11.20745 36043 ft 443 kts 337°
2026-05-08 18:47 46.63024 11.17889 36044 ft 443 kts 337°
2026-05-08 18:47 46.68862 11.15013 36032 ft 444 kts 337°
2026-05-08 18:48 46.74683 11.12151 36028 ft 444 kts 337°
2026-05-08 18:48 46.80546 11.09260 36031 ft 445 kts 337°
2026-05-08 18:49 46.86395 11.06289 36052 ft 443 kts 333°
2026-05-08 18:49 46.91985 11.02552 36048 ft 442 kts 332°
2026-05-08 18:50 46.97587 10.98820 36044 ft 442 kts 332°
2026-05-08 18:50 47.03206 10.95161 36041 ft 442 kts 332°
2026-05-08 18:51 47.08821 10.91517 36053 ft 441 kts 332°
2026-05-08 18:51 47.14439 10.87854 36051 ft 442 kts 332°
2026-05-08 18:52 47.20055 10.84156 36042 ft 442 kts 332°
2026-05-08 18:52 47.25663 10.80445 36053 ft 442 kts 332°
2026-05-08 18:53 47.31272 10.76736 36059 ft 441 kts 332°
2026-05-08 18:53 47.36836 10.73056 36053 ft 441 kts 332°
2026-05-08 18:54 47.42471 10.69443 36055 ft 442 kts 334°
2026-05-08 18:54 47.48212 10.66145 36046 ft 442 kts 335°
2026-05-08 18:55 47.56831 10.61260 36066 ft 442 kts 335°
2026-05-08 18:56 47.62516 10.57922 36056 ft 442 kts 334°
2026-05-08 18:56 47.68227 10.54531 36067 ft 442 kts 334°
2026-05-08 18:57 47.73954 10.51148 36063 ft 443 kts 334°
2026-05-08 18:57 47.79677 10.47775 36069 ft 443 kts 335°
2026-05-08 18:58 47.85412 10.44377 36063 ft 443 kts 334°
2026-05-08 18:58 47.91148 10.40975 36061 ft 444 kts 335°
2026-05-08 18:59 47.96884 10.37558 36068 ft 443 kts 334°
2026-05-08 18:59 48.02615 10.34139 36061 ft 444 kts 335°
2026-05-08 19:00 48.08351 10.30712 36053 ft 444 kts 334°
2026-05-08 19:00 48.14085 10.27268 36056 ft 444 kts 334°
2026-05-08 19:01 48.19738 10.23730 36067 ft 441 kts 329°
2026-05-08 19:01 48.24719 10.18505 36054 ft 436 kts 318°
2026-05-08 19:02 48.29438 10.12774 36048 ft 436 kts 318°
2026-05-08 19:02 48.34160 10.07055 36045 ft 436 kts 318°
2026-05-08 19:03 48.38883 10.01311 36045 ft 437 kts 318°
2026-05-08 19:03 48.43599 9.95558 36056 ft 437 kts 318°
2026-05-08 19:04 48.48331 9.89775 36056 ft 437 kts 318°
2026-05-08 19:04 48.53049 9.83992 36060 ft 437 kts 318°
2026-05-08 19:05 48.57764 9.78186 36060 ft 437 kts 317°
2026-05-08 19:05 48.62458 9.72334 36058 ft 437 kts 316°
2026-05-08 19:06 48.67045 9.66306 36061 ft 437 kts 315°
2026-05-08 19:06 48.71589 9.60227 36073 ft 437 kts 316°
2026-05-08 19:07 48.76175 9.54121 36065 ft 438 kts 316°
2026-05-08 19:07 48.80773 9.48032 36066 ft 438 kts 316°
2026-05-08 19:08 48.85360 9.41948 36063 ft 438 kts 316°
2026-05-08 19:08 48.89956 9.35854 36070 ft 439 kts 318°
2026-05-08 19:09 48.95220 9.31036 36079 ft 445 kts 330°
2026-05-08 19:09 49.00772 9.26830 36079 ft 446 kts 330°
2026-05-08 19:10 49.06345 9.22596 36074 ft 447 kts 330°
2026-05-08 19:10 49.12232 9.19627 36073 ft 456 kts 355°
2026-05-08 19:10 49.15405 9.20055 36029 ft 463 kts 10°
2026-05-08 19:11 49.18480 9.21712 35322 ft 473 kts 22°
2026-05-08 19:11 49.21463 9.23901 34609 ft 477 kts 24°
2026-05-08 19:11 49.24337 9.26446 33888 ft 482 kts 36°
2026-05-08 19:11 49.26710 9.30074 33050 ft 486 kts 53°
2026-05-08 19:12 49.28357 9.34579 32262 ft 486 kts 69°
2026-05-08 19:12 49.29140 9.39595 31478 ft 484 kts 86°
2026-05-08 19:12 49.29002 9.44709 30722 ft 480 kts 103°
2026-05-08 19:12 49.27967 9.49491 29967 ft 472 kts 120°
2026-05-08 19:13 49.26120 9.53597 29103 ft 464 kts 136°
2026-05-08 19:13 49.23638 9.56665 28266 ft 455 kts 153°
2026-05-08 19:13 49.20746 9.58464 27457 ft 447 kts 169°
2026-05-08 19:13 49.17686 9.58872 26674 ft 438 kts 186°
2026-05-08 19:14 49.14759 9.57884 25910 ft 430 kts 204°
2026-05-08 19:14 49.12199 9.55608 25154 ft 424 kts 221°
2026-05-08 19:14 49.10251 9.52270 24427 ft 420 kts 238°
2026-05-08 19:14 49.09100 9.48207 23711 ft 417 kts 256°
2026-05-08 19:15 49.08808 9.43830 22971 ft 415 kts 272°
2026-05-08 19:15 49.09326 9.39548 22317 ft 411 kts 287°
2026-05-08 19:15 49.10606 9.35671 21605 ft 410 kts 304°
2026-05-08 19:15 49.12569 9.32525 20909 ft 410 kts 320°
2026-05-08 19:16 49.15003 9.30382 20262 ft 411 kts 336°
2026-05-08 19:16 49.17811 9.29329 19608 ft 412 kts 353°
2026-05-08 19:16 49.20675 9.29379 19084 ft 413 kts
2026-05-08 19:16 49.23536 9.29611 18632 ft 412 kts
2026-05-08 19:17 49.26399 9.29849 18157 ft 410 kts
2026-05-08 19:17 49.29242 9.30084 17643 ft 407 kts
2026-05-08 19:17 49.32055 9.30314 17139 ft 404 kts
2026-05-08 19:17 49.34859 9.30542 16641 ft 402 kts
2026-05-08 19:18 49.37630 9.30775 16160 ft 399 kts
2026-05-08 19:18 49.40397 9.31009 15673 ft 396 kts
2026-05-08 19:18 49.43100 9.31232 15211 ft 391 kts
2026-05-08 19:18 49.45789 9.31453 14744 ft 383 kts
2026-05-08 19:19 49.48427 9.31671 14284 ft 376 kts
2026-05-08 19:19 49.51010 9.31883 13825 ft 369 kts
2026-05-08 19:19 49.53556 9.32091 13317 ft 363 kts
2026-05-08 19:19 49.56050 9.32295 12811 ft 357 kts
2026-05-08 19:20 49.58513 9.32619 12330 ft 353 kts
2026-05-08 19:20 49.59330 9.32798 12205 ft 350 kts
2026-05-08 19:20 49.62463 9.33551 12097 ft 331 kts
2026-05-08 19:20 49.64724 9.34105 12101 ft 328 kts
2026-05-08 19:21 49.66977 9.34659 12110 ft 327 kts
2026-05-08 19:21 49.69222 9.35210 12114 ft 327 kts
2026-05-08 19:21 49.71476 9.35763 12112 ft 327 kts
2026-05-08 19:21 49.73698 9.36115 12012 ft 327 kts 357°
2026-05-08 19:22 49.75967 9.35915 11762 ft 325 kts 355°
2026-05-08 19:22 49.78216 9.35683 11510 ft 323 kts 355°
2026-05-08 19:22 49.80440 9.35273 11260 ft 321 kts 346°
2026-05-08 19:22 49.82598 9.34454 11098 ft 319 kts 348°
2026-05-08 19:23 49.84749 9.33680 11107 ft 316 kts 334°
2026-05-08 19:23 49.86470 9.31661 11117 ft 311 kts 308°
2026-05-08 19:23 49.87536 9.28777 11118 ft 309 kts 288°
2026-05-08 19:23 49.88117 9.25583 11111 ft 308 kts 284°
2026-05-08 19:24 49.88692 9.22386 11106 ft 308 kts 284°
2026-05-08 19:24 49.89289 9.19179 11113 ft 308 kts 285°
2026-05-08 19:24 49.89887 9.15982 11108 ft 308 kts 285°
2026-05-08 19:24 49.90480 9.12798 11112 ft 308 kts 285°
2026-05-08 19:25 49.91072 9.09604 11113 ft 308 kts 285°
2026-05-08 19:25 49.91663 9.06398 11110 ft 309 kts 285°
2026-05-08 19:25 49.92254 9.03189 11037 ft 308 kts 285°
2026-05-08 19:25 49.92850 9.00023 10630 ft 306 kts 285°
2026-05-08 19:26 49.93457 8.96875 10235 ft 304 kts 285°
2026-05-08 19:26 49.94063 8.93735 9817 ft 302 kts 285°
2026-05-08 19:26 49.94661 8.90623 9371 ft 300 kts 285°
2026-05-08 19:26 49.95238 8.87596 9144 ft 291 kts 285°
2026-05-08 19:27 49.95802 8.84632 9004 ft 281 kts 285°
2026-05-08 19:27 49.96348 8.81753 8728 ft 276 kts 285°
2026-05-08 19:27 49.96886 8.78898 8387 ft 274 kts 285°
2026-05-08 19:27 49.97421 8.76068 8126 ft 272 kts 285°
2026-05-08 19:28 49.97832 8.73205 8108 ft 273 kts 275°
2026-05-08 19:28 49.97773 8.70271 8109 ft 273 kts 260°
2026-05-08 19:28 49.97240 8.67448 8111 ft 273 kts 249°
2026-05-08 19:28 49.96569 8.64690 8112 ft 273 kts 249°
2026-05-08 19:29 49.95902 8.61930 8110 ft 273 kts 250°
2026-05-08 19:29 49.95236 8.59173 8111 ft 273 kts 249°
2026-05-08 19:29 49.94567 8.56415 8112 ft 273 kts 249°
2026-05-08 19:29 49.93907 8.53689 8106 ft 263 kts 250°
2026-05-08 19:30 49.93283 8.51103 8105 ft 249 kts 250°
2026-05-08 19:30 49.92686 8.48642 8110 ft 241 kts 250°
2026-05-08 19:30 49.92099 8.46209 8106 ft 240 kts 250°
2026-05-08 19:30 49.91518 8.43781 8108 ft 240 kts 250°
2026-05-08 19:31 49.90939 8.41367 8109 ft 240 kts 250°
2026-05-08 19:31 49.90351 8.38936 8106 ft 240 kts 250°
2026-05-08 19:31 49.89769 8.36529 7972 ft 238 kts 250°
2026-05-08 19:31 49.89186 8.34121 7679 ft 238 kts 249°
2026-05-08 19:32 49.88606 8.31728 7394 ft 236 kts 249°
2026-05-08 19:32 49.88033 8.29356 7114 ft 235 kts 249°
2026-05-08 19:32 49.87460 8.26990 6826 ft 234 kts 249°
2026-05-08 19:32 49.86888 8.24636 6550 ft 233 kts 249°
2026-05-08 19:33 49.86319 8.22299 6249 ft 232 kts 249°
2026-05-08 19:33 49.85749 8.19963 5918 ft 232 kts 249°
2026-05-08 19:33 49.85176 8.17618 5586 ft 233 kts 249°
2026-05-08 19:33 49.84598 8.15251 5199 ft 236 kts 249°
2026-05-08 19:34 49.84016 8.12874 4851 ft 237 kts 249°
2026-05-08 19:34 49.83432 8.10478 4494 ft 238 kts 249°
2026-05-08 19:34 49.82848 8.08088 4162 ft 238 kts 249°
2026-05-08 19:34 49.82258 8.05691 4005 ft 238 kts 249°
2026-05-08 19:35 49.81669 8.03297 4005 ft 239 kts 249°
2026-05-08 19:35 49.81082 8.00902 4002 ft 239 kts 249°
2026-05-08 19:35 49.80540 7.98469 3998 ft 239 kts 259°
2026-05-08 19:35 49.80670 7.95942 4006 ft 238 kts 292°
2026-05-08 19:36 49.81625 7.93949 4007 ft 235 kts 326°
2026-05-08 19:36 49.83079 7.92850 4005 ft 233 kts 342°
2026-05-08 19:36 49.84632 7.92149 4002 ft 232 kts 358°
2026-05-08 19:36 49.86176 7.92613 4001 ft 228 kts 30°
2026-05-08 19:37 49.87440 7.94068 4010 ft 227 kts 42°
2026-05-08 19:37 49.88563 7.95786 4013 ft 227 kts 54°
2026-05-08 19:37 49.89326 7.97908 4010 ft 226 kts 70°
2026-05-08 19:37 49.89871 8.00200 4015 ft 226 kts 71°
2026-05-08 19:38 49.90390 8.02417 4003 ft 210 kts 70°
2026-05-08 19:38 49.90887 8.04470 4004 ft 199 kts 70°
2026-05-08 19:38 49.91373 8.06460 4007 ft 196 kts 70°
2026-05-08 19:38 49.91857 8.08439 4010 ft 197 kts 70°
2026-05-08 19:39 49.92344 8.10429 4010 ft 197 kts 70°
2026-05-08 19:39 49.92828 8.12408 4010 ft 197 kts 70°
2026-05-08 19:39 49.93307 8.14370 4030 ft 185 kts 70°
2026-05-08 19:39 49.93743 8.16155 4012 ft 171 kts 70°
2026-05-08 19:40 49.94158 8.17858 4006 ft 166 kts 70°
2026-05-08 19:40 49.94561 8.19515 4007 ft 164 kts 70°
2026-05-08 19:40 49.94966 8.21179 4011 ft 164 kts 70°
2026-05-08 19:40 49.95369 8.22832 4010 ft 163 kts 70°
2026-05-08 19:41 49.95769 8.24480 4010 ft 163 kts 70°
2026-05-08 19:41 49.96170 8.26132 3936 ft 164 kts 70°
2026-05-08 19:41 49.96570 8.27781 3771 ft 163 kts 70°
2026-05-08 19:41 49.96968 8.29421 3567 ft 161 kts 70°
2026-05-08 19:42 49.97361 8.31044 3359 ft 160 kts 70°
2026-05-08 19:42 49.97747 8.32637 3148 ft 159 kts 70°
2026-05-08 19:42 49.98134 8.34240 2929 ft 158 kts 70°
2026-05-08 19:42 49.98522 8.35864 2713 ft 158 kts 70°
2026-05-08 19:43 49.98903 8.37433 2502 ft 157 kts 70°
2026-05-08 19:43 49.99290 8.39035 2293 ft 156 kts 70°
2026-05-08 19:43 49.99670 8.40607 2072 ft 155 kts 69°
2026-05-08 19:43 50.00046 8.42149 1863 ft 154 kts 69°
2026-05-08 19:44 50.00420 8.43702 1654 ft 154 kts 69°
2026-05-08 19:44 50.00790 8.45247 1455 ft 149 kts 69°
2026-05-08 19:44 50.01142 8.46709 1242 ft 138 kts 69°
2026-05-08 19:44 50.01468 8.48066 1076 ft 132 kts 68°
2026-05-08 19:45 50.01786 8.49389 886 ft 130 kts 68°
2026-05-08 19:45 50.02101 8.50700 724 ft 128 kts 67°
2026-05-08 19:45 50.02415 8.51994 562 ft 129 kts 68°
2026-05-08 19:45 50.02729 8.53309 399 ft 130 kts 67°
2026-05-08 19:46 50.03025 8.54544 351 ft 105 kts 70°
2026-05-08 19:46 50.03219 8.55359 355 ft 55 kts 69°
2026-05-08 19:46 50.03526 8.55972 365 ft 21 kts 41°
2026-05-08 19:47 50.03642 8.56137 360 ft 25 kts 52°
2026-05-08 19:47 50.03705 8.56365 358 ft 23 kts 69°
2026-05-08 19:47 50.03764 8.56610 358 ft 26 kts 69°
2026-05-08 19:47 50.03826 8.56875 360 ft 24 kts 70°
2026-05-08 19:48 50.03889 8.57134 363 ft 27 kts 69°
2026-05-08 19:48 50.03950 8.57390 360 ft 25 kts 69°
2026-05-08 19:48 50.04013 8.57653 362 ft 25 kts 70°
2026-05-08 19:48 50.04077 8.57923 360 ft 28 kts 69°
2026-05-08 19:49 50.04151 8.58229 360 ft 32 kts 69°
2026-05-08 19:49 50.04216 8.58499 365 ft 26 kts 69°
2026-05-08 19:49 50.04283 8.58771 360 ft 28 kts 70°
2026-05-08 19:49 50.04353 8.59064 361 ft 29 kts 69°
2026-05-08 19:50 50.04420 8.59349 360 ft 18 kts 70°
2026-05-08 19:50 50.04464 8.59464 358 ft 12 kts 31°
2026-05-08 19:50 50.04558 8.59470 358 ft 15 kts 357°
2026-05-08 19:50 50.04671 8.59452 359 ft 18 kts 345°
2026-05-08 19:51 50.04780 8.59397 358 ft 14 kts 340°
2026-05-08 19:51 50.04870 8.59361 360 ft 13 kts
2026-05-08 19:51 50.04970 8.59353 360 ft 16 kts 340°
2026-05-08 19:51 50.05057 8.59294 359 ft 14 kts 326°
2026-05-08 19:52 50.05069 8.59172 361 ft 9 kts 248°
2026-05-08 19:52 50.05047 8.59105 360 ft 4 kts 221°
2026-05-08 19:52 50.05017 8.59108 362 ft 3 kts 148°
2026-05-08 19:52 50.04999 8.59137 358 ft 5 kts 141°
2026-05-08 19:53 50.04975 8.59153 358 ft 0 kts 160°